sat.trackr.live / text

‹ back to catalog

STARLINK-30837

NORAD 58212 · 2023-170G

PAYLOAD ACTIVE UNKNOWN

§ Identity

Operator
Country
US
Launch date
2023-11-03
Launch site
AFETR
Launch vehicle
Mass (kg)
RCS (m²)

Purposes: comms

External: N2YO · Heavens-Above · Gunter

§ Orbital elements

Epoch: 2026-05-24T23:45:45.688032Z

Period
94.27 min
Inclination
43.0028°
Eccentricity
0.0001126
Mean motion
15.27577407 rev/d
Perigee alt
482.3 km
Apogee alt
483.8 km
Semi-major
6,861.2 km
B*
1.8310e-5
RAAN
123.7265°
Arg perigee
297.2577°
Mean anomaly
62.8160°
Rev number
14,196

§ Raw data

STARLINK-308371 58212U 23170G   26144.99011213  .00000242  00000+0  18310-4 0  99982 58212  43.0028 123.7265 0001126 297.2577  62.8160 15.27577407141961

JSON: /api/v1/satellites/58212 · /tle

For live sub-satellite position, see the globe view (requires WebGL).

§ Visibility from observer

Set your observer location to see the next 7 days of passes ≥ 10°. The values pass through the URL so the page stays shareable.

No JS? Fill the form by hand. The geolocation button needs JavaScript.